Weather History for Sussex, NJ

Change the Weather History Date:

Sunday, February 17, 2013

  Actual Average Record
Temperature  
Mean Temperature 22 °F -  
Max Temperature 27 °F 38 °F 57 °F (2011)
Min Temperature 16 °F 15 °F -6 °F (1963)
Degree Days  
Heating Degree Days 44    
Moisture  
Dew Point 2 °F    
Average Humidity 39    
Maximum Humidity 47    
Minimum Humidity 33    
Precipitation  
Precipitation 0.00 in - - ()
Sea Level Pressure  
Sea Level Pressure 29.80 in    
Wind  
Wind Speed 10 mph (NW)    
Max Wind Speed 16 mph    
Max Gust Speed 32 mph    
Visibility 10 miles    
Events      
Averages and records for this station are not official NWS values.
T = Trace of Precipitation, MM = Missing Value Source: NWS Daily Summary

Daily Weather History Graph

Daily Weather History Graph

Search for Another Location

Airport:

Trip Planner

Search our weather history database for the weather conditions in past years. The results will help you decide how hot, cold, wet, or windy it might be!

Date:

Astronomy

Feb. 17, 2013 Rise Set
Actual Time 6:50 AM EST 5:35 PM EST
Civil Twilight 6:22 AM EST 6:03 PM EST
Nautical Twilight 5:49 AM EST 6:35 PM EST
Astronomical Twilight 5:17 AM EST 7:07 PM EST
Moon 10:36 AM EST (2/17) 12:33 AM EST (2/17)
Length of Visible Light 11h 41m
Length of Day
10h 45m
Waxing Crescent, 49% of the Moon is Illuminated
Feb 17
Waxing Crescent
Feb 17
First Quarter
Feb 25
Full
Mar 4
Last Quarter
Mar 11
New

Hourly Weather History & Observations

Time (EST) Temp. Windchill Dew Point Humidity Pressure Visibility Wind Dir Wind Speed Gust Speed Precip Events Conditions
12:53 AM 27.0 °F 16.7 °F 7.0 °F 43% 29.75 in 10.0 mi North 11.5 mph 16.1 mph N/A   Overcast
1:53 AM 27.0 °F 18.7 °F 8.1 °F 45% 29.74 in 10.0 mi North 8.1 mph - N/A   Overcast
2:53 AM 26.1 °F 18.4 °F 8.1 °F 47% 29.73 in 10.0 mi North 6.9 mph - N/A   Overcast
3:53 AM 26.1 °F 20.5 °F 3.0 °F 37% 29.72 in 10.0 mi Variable 4.6 mph - N/A   Mostly Cloudy
4:53 AM 26.1 °F 17.6 °F 1.9 °F 35% 29.72 in 10.0 mi NW 8.1 mph 16.1 mph N/A   Scattered Clouds
5:53 AM 25.0 °F 16.3 °F 1.9 °F 37% 29.71 in 10.0 mi NW 8.1 mph 18.4 mph N/A   Clear
6:53 AM 24.1 °F 17.0 °F 1.0 °F 37% 29.71 in 10.0 mi Variable 5.8 mph 24.2 mph N/A   Clear
7:53 AM 21.9 °F 14.5 °F 1.0 °F 40% 29.73 in 10.0 mi Variable 5.8 mph - N/A   Clear
8:53 AM 24.1 °F 16.0 °F 1.9 °F 38% 29.72 in 10.0 mi Variable 6.9 mph - N/A   Clear
9:53 AM 26.1 °F 16.2 °F 1.0 °F 34% 29.73 in 10.0 mi NNW 10.4 mph 24.2 mph N/A   Clear
10:53 AM 27.0 °F 14.7 °F 1.9 °F 34% 29.73 in 10.0 mi NNW 16.1 mph 24.2 mph N/A   Clear
11:53 AM 27.0 °F 16.1 °F 1.9 °F 34% 29.74 in 10.0 mi NNW 12.7 mph 32.2 mph N/A   Clear
12:53 PM 27.0 °F 17.3 °F 1.9 °F 34% 29.75 in 10.0 mi NW 10.4 mph 32.2 mph N/A   Clear
1:53 PM 27.0 °F 16.1 °F 1.0 °F 33% 29.76 in 10.0 mi NNW 12.7 mph 31.1 mph N/A   Partly Cloudy
2:53 PM 27.0 °F 16.1 °F 3.0 °F 36% 29.77 in 10.0 mi NW 12.7 mph 31.1 mph N/A   Overcast
3:53 PM 25.0 °F 12.2 °F 1.0 °F 36% 29.80 in 10.0 mi WNW 16.1 mph 31.1 mph 0.00 in   Scattered Clouds
4:53 PM 24.1 °F 11.5 °F 1.9 °F 38% 29.82 in 10.0 mi NW 15.0 mph 27.6 mph 0.00 in   Mostly Cloudy
5:53 PM 21.0 °F 10.6 °F 1.9 °F 44% 29.86 in 10.0 mi WNW 9.2 mph 28.8 mph 0.00 in   Clear
6:53 PM 19.9 °F 8.6 °F -0.0 °F 42% 29.90 in 10.0 mi WNW 10.4 mph 21.9 mph N/A   Partly Cloudy
7:53 PM 18.0 °F 4.8 °F -0.0 °F 45% 29.95 in 10.0 mi North 12.7 mph 23.0 mph N/A   Mostly Cloudy
8:53 PM 16.0 °F 2.9 °F -2.9 °F 43% 29.99 in 10.0 mi North 11.5 mph 19.6 mph N/A   Mostly Cloudy
9:53 PM 16.0 °F 5.3 °F -0.9 °F 47% 29.99 in 10.0 mi WNW 8.1 mph 19.6 mph N/A   Overcast
10:53 PM 16.0 °F 10.4 °F -0.9 °F 47% 29.99 in 10.0 mi Variable 3.5 mph - 0.00 in   Overcast